Location: Maiden
(35.5760°N, 81.2120°W)
Time: 03:47:13
(UTC-05:00)

Daily predictions for brighter satellites

Satellite Brightness Start Highest point End
(mag) Time Altitude Azimuth Time Altitude Azimuth Time Altitude Azimuth
CZ-3 R/B 4.2 03:23:02 47° SSW 03:28:58 54° S 03:39:23 10° E
Cosmos 2056 Rocket 4.4 04:28:24 34° SSE 04:30:06 45° ESE 04:35:02 10° NNE
Okean O Rocket 3.7 04:27:17 10° NE 04:30:57 26° E 04:34:35 10° SSE
Cosmos 1371 Rocket 4.5 04:36:28 58° ENE 04:36:28 58° ENE 04:40:59 10° NNE
Cosmos 1461 4.3 04:39:37 39° NE 04:39:37 39° NE 04:42:41 10° NE
Cosmos 1386 Rocket 4.4 04:45:02 27° N 04:48:33 81° E 04:54:38 10° S
MOS 1-B 4.2 04:45:04 10° NNE 04:50:52 88° ESE 04:56:39 10° SSW
Cosmos 883 Rocket 4.5 04:50:58 10° S 04:57:14 84° E 05:03:36 10° N
SEDSat Delta rocket 3.7 04:58:25 48° S 04:58:25 48° S 05:03:21 10° ESE
Lacrosse 5 1.8 04:58:18 77° N 04:58:35 81° NE 05:03:39 10° SE
Cosmos 1805 Rocket 3.6 05:00:33 10° S 05:04:58 78° E 05:09:26 10° N
Meteor 2-19 Rocket 4.4 05:01:46 10° N 05:07:57 87° E 05:14:06 10° S
DEBRIS 3.5 05:08:00 59° NW 05:08:19 61° NNW 05:18:45 10° NE
Shenzhou-11 Module 4.3 05:11:45 21° NE 05:11:45 21° NE 05:12:51 10° ENE
GPS 2-04 Rocket1 3.6 05:11:33 35° SSE 05:11:33 35° SSE 05:13:52 10° ESE
PAYLOAD A 4.1 05:05:26 10° NNE 05:10:49 85° ESE 05:16:16 10° SSW
Cosmos 1633 Rocket 4.3 05:09:57 10° SSE 05:14:04 42° E 05:18:11 10° NNE
MOS 1-B Rocket 3.7 05:08:55 10° N 05:14:52 74° WNW 05:20:25 10° SSW
USA 267 3.9 05:12:56 10° NNE 05:18:41 34° NNW 05:19:42 33° NW
COSMOS 2406 3.2 05:16:40 32° SW 05:19:10 58° WNW 05:24:46 10° NNE
MSX 3.7 05:21:33 10° N 05:27:21 80° WNW 05:33:06 10° SSW
IDEFIX/ARIANE 42P 2.7 05:23:05 10° N 05:28:02 46° WNW 05:32:56 10° SW
Sakura Rocket 4.3 05:34:29 18° SSW 05:36:08 24° S 05:39:11 10° ESE
COSMO-SKYMED 1 2.9 05:32:39 10° SSE 05:36:57 67° ENE 05:41:16 10° N
Sich 1 3.0 05:33:54 10° SSW 05:38:15 63° W 05:42:35 10° N
Aureole 3 Rocket 3.6 05:36:45 10° SSW 05:41:30 36° W 05:43:38 21° NNW
Cosmos 1933 3.6 05:41:00 28° NW 05:42:46 46° W 05:46:40 10° SSW
Cosmos 407 Rocket 3.5 05:40:52 14° NNW 05:45:15 63° WSW 05:50:26 10° S
CZ-4B R/B 3.3 05:41:05 10° N 05:46:34 58° WNW 05:52:05 10° SSW
Okean-O 4.3 05:44:38 10° NNE 05:48:44 36° E 05:52:48 10° SSE
USA 234 3.6 05:43:36 10° ESE 05:50:03 65° NE 05:56:25 11° NW
Cosmos 1408 3.1 05:49:49 10° SW 05:53:05 34° W 05:56:24 10° NNW
Cosmos 1452 Rocket 3.4 05:48:22 10° SSW 05:53:36 79° WNW 05:58:53 10° NNE
Cosmos 1707 Rocket 3.5 05:49:36 10° NNW 05:53:54 58° W 05:58:12 10° S
CZ-2C R/B 2.6 05:49:20 10° N 05:54:05 46° WNW 05:58:40 10° SW
Cosmos 1697 Rocket 4.2 05:50:33 10° N 05:55:43 35° ENE 06:00:51 10° SE
SJ-12 3.8 05:55:19 10° NNE 05:59:25 88° W 06:03:29 10° SSW
SeaSat 1 2.4 05:58:35 10° NNE 06:03:33 86° WNW 06:08:28 10° SSW
Cosmos 1709 Rocket 4.4 06:00:14 10° NNW 06:05:46 37° W 06:11:18 10° SSW
Cosmos 614 Rocket 4.0 06:01:55 10° NNW 06:06:55 59° WSW 06:11:52 10° S
Okean O Rocket 2.6 06:03:41 10° NNW 06:07:10 23° WNW 06:10:36 10° WSW
NOAA 6 4.0 06:02:12 10° N 06:07:14 59° WNW 06:12:14 10° SSW
Cosmos 1862 Rocket 3.8 06:05:08 10° N 06:09:28 71° E 06:13:45 10° SSE
Orbus 7S? 3.1 06:08:26 13° NW 06:12:27 60° SW 06:15:10 10° SSE
Meteor 2-3 Rocket 4.2 06:08:19 10° SW 06:13:39 38° WNW 06:19:01 10° N
Delta 2 Rocket 3.6 06:10:27 15° W 06:14:24 75° SSW 06:18:39 10° ESE
Cosmos 2278 4.3 06:10:12 10° NNW 06:15:47 60° ENE 06:21:21 10° SSE
Cosmos 1606 3.1 06:15:03 10° NNW 06:18:44 42° W 06:22:21 10° SSW
Cosmos 1825 3.4 06:16:28 10° SW 06:19:23 21° WNW 06:22:19 10° NNW
Cosmos 1470 Rocket 3.5 06:15:34 10° SSW 06:19:49 61° W 06:24:06 10° N
Feng Yun 1-1 Rocket 4.3 06:16:38 10° N 06:22:21 75° WNW 06:28:10 10° SSW
Nadezhda 1 Rocket 4.1 06:16:43 10° S 06:23:05 86° W 06:29:25 10° N
Cosmos 1833 Rocket 2.7 06:17:43 10° SW 06:23:15 57° WNW 06:28:49 10° NNE
Meteor 2-6 Rocket 4.5 06:18:04 10° N 06:23:45 79° E 06:29:34 10° SSE
SKYMED 2 4.3 06:21:09 10° SSW 06:25:01 32° W 06:28:55 10° NNW
ALOS 3.4 06:21:40 10° NNE 06:26:13 50° E 06:30:44 10° S
Cosmos 1933 Rocket 3.6 06:21:55 10° SSW 06:26:21 67° W 06:30:49 10° N
NOSS 3-1 (C) 3.6 06:22:19 10° SSW 06:27:44 73° ESE 06:33:50 10° NE
Meteor 2-14 Rocket 4.5 06:23:11 10° NNW 06:29:09 60° W 06:35:07 10° S
Cosmos 1656 3.7 06:24:36 10° NNW 06:30:17 71° WSW 06:35:56 10° SSE
SJ-7 4.5 06:27:26 10° N 06:31:38 83° WNW 06:35:51 10° SSW
FENGYUN 3A 4.4 06:30:20 10° NNE 06:35:39 58° E 06:40:54 10° S
GPS 2-05 Rocket1 3.7 06:34:46 10° W 06:37:27 31° SSW 06:40:06 10° SE
USA 229 DEB 3.7 06:33:32 10° SW 06:40:05 62° NW 06:46:52 10° NNE
USA 229 3.7 06:33:37 10° SW 06:40:10 63° NW 06:46:59 10° NNE
Cosmos 1850 Rocket 4.1 06:35:01 10° NNW 06:40:19 86° ENE 06:45:38 10° SSE
CZ-2C R/B 3.9 06:36:09 10° S 06:40:24 49° W 06:44:44 10° NNW
NOSS 3-1 (A) 4.0 06:35:44 10° SSW 06:41:05 59° ESE 06:47:03 10° NE
